Wind_Speed
16 16 16 17 18 18 17 16 15 14 12 11 9 8 7 7 7 6 6 5 5 4 4 5 4 4 3 3 2 2 2 3 3 3 3 2 1 1 2 2 2 2
17 17 17 17 18 18 18 17 17 15 14 12 10 9 9 8 8 7 6 6 6 6 6 6 6 6 6 5 6 6 6 6 6 6 6 5 4 3 1 0 1 1
18 18 18 18 18 18 18 18 18 17 15 13 11 11 10 10 9 8 8 7 7 8 8 8 8 8 8 7 7 7 7 7 7 7 7 7 7 6 5 3 2 1
19 19 19 20 20 19 18 18 17 17 16 14 12 13 12 11 11 10 10 9 8 8 8 7 7 7 7 6 6 5 5 5 6 6 7 7 8 8 8 7 5 2
20 20 20 21 21 20 19 18 18 17 16 15 14 14 14 13 13 12 11 10 9 9 8 7 6 5 5 5 4 3 3 3 4 5 6 7 7 8 9 8 7 5
22 21 21 22 22 21 20 19 19 18 17 16 15 15 15 15 14 14 13 11 10 9 8 7 5 4 4 3 2 2 2 2 2 3 4 5 6 7 8 8 8 7
24 23 23 24 23 21 21 20 20 19 18 18 17 16 16 17 16 15 14 13 12 11 9 7 6 5 4 3 2 2 1 0 1 2 3 4 5 6 6 7 7 6
26 25 24 25 24 23 22 21 21 20 20 19 18 18 19 19 18 17 16 15 14 12 10 9 7 6 5 4 3 3 2 2 2 2 3 3 4 5 5 5 5 5
28 27 25 25 25 24 23 22 22 22 21 20 20 20 20 21 20 19 18 17 16 14 12 11 9 8 7 6 5 4 3 4 4 3 3 3 4 4 4 4 4 4
29 29 27 26 25 25 24 24 23 23 22 21 21 21 22 22 22 21 20 19 18 16 15 13 11 10 8 8 7 6 4 5 5 5 4 4 4 4 4 4 3 2
29 29 29 27 26 26 26 25 25 24 23 22 21 22 23 23 23 22 22 21 20 19 17 15 13 12 10 9 9 8 6 5 6 6 5 5 4 4 4 4 3 2
27 28 29 29 28 27 27 27 26 25 25 24 23 23 23 24 24 23 23 23 22 21 20 17 15 14 12 11 11 10 8 7 7 7 6 6 5 4 4 5 4 3
24 26 28 29 29 29 29 29 28 27 26 25 25 24 24 24 25 25 25 25 24 22 21 19 17 16 14 13 12 12 11 9 8 7 7 7 6 5 5 5 5 4
21 24 26 28 29 29 30 30 30 28 27 27 27 26 25 25 25 26 26 26 25 24 22 21 19 17 16 15 14 13 13 11 9 9 8 7 7 7 6 6 6 5
17 20 23 25 27 28 29 30 30 30 29 28 28 27 26 26 26 27 27 26 26 25 23 22 20 19 18 17 16 15 14 13 11 10 10 9 8 8 7 7 7 7
15 16 18 21 24 26 27 28 29 30 30 30 30 29 28 28 27 28 27 27 27 26 24 23 22 21 20 19 18 16 15 15 13 12 11 10 10 9 9 9 9 9
15 15 14 16 19 22 25 26 27 29 29 30 31 31 31 30 29 28 28 28 27 27 25 23 23 22 22 21 19 18 16 16 15 14 12 11 11 10 10 10 10 10
16 15 13 13 15 18 21 23 25 26 28 28 30 32 33 32 30 29 28 29 29 28 26 25 24 24 23 22 21 19 18 17 17 16 15 13 12 11 11 11 11 11
17 16 14 13 14 15 18 21 22 23 25 26 28 30 33 33 31 30 30 30 30 29 28 27 26 25 24 24 22 20 19 18 18 17 16 15 14 13 12 12 12 12
18 18 16 15 14 14 16 18 20 22 23 25 26 28 30 32 32 31 31 31 30 30 30 29 28 27 26 25 24 22 21 19 19 18 18 17 16 15 14 14 13 13
19 19 18 17 15 14 15 16 18 20 22 24 25 26 28 30 31 32 31 31 31 31 31 31 30 29 28 27 26 24 22 21 19 19 19 19 18 18 17 16 14 14
19 20 20 19 17 15 15 16 18 19 20 22 24 25 26 28 30 31 31 31 32 31 31 31 31 30 29 28 28 26 23 21 20 20 20 21 21 20 19 18 16 15
20 21 22 21 19 16 16 17 18 19 20 21 23 24 25 26 28 30 30 31 31 31 31 31 31 31 30 30 29 27 24 22 21 21 21 22 22 22 20 19 18 17
22 22 23 23 21 19 18 18 19 19 20 21 22 23 24 25 27 29 30 30 30 31 31 31 31 31 30 30 30 28 25 23 21 21 22 23 23 22 22 21 20 19
24 24 24 25 24 21 20 20 21 20 21 21 22 23 24 25 26 28 28 29 29 30 30 30 30 30 29 29 29 28 26 24 22 22 22 22 23 23 23 23 21 21
26 25 25 25 25 24 22 21 22 22 22 22 23 23 23 23 25 26 27 27 28 29 29 29 28 28 27 28 28 28 27 25 23 21 21 22 23 24 24 23 22 22
Wind_Direction
206 202 201 202 202 202 203 204 204 207 207 206 203 200 198 199 203 208 208 205 197 187 187 189 188 187 181 171 151 128 108 99 93 83 73 58 21 311 285 267 262 261
208 205 206 208 209 207 206 207 207 208 208 205 199 195 196 198 200 200 190 177 164 155 149 145 142 137 131 124 116 108 102 97 91 84 79 70 61 54 47 143 212 219
213 207 208 212 214 213 211 211 210 210 209 203 196 194 197 197 195 190 179 166 156 148 140 135 131 126 121 115 109 105 98 94 88 81 78 73 67 65 64 68 89 142
219 212 211 214 217 218 217 217 216 214 212 204 196 197 197 197 194 188 180 172 164 155 147 141 136 129 124 119 112 105 97 90 85 79 74 69 64 62 61 62 64 66
224 218 217 218 220 220 220 221 221 219 216 208 201 201 199 198 197 193 187 182 174 167 160 155 151 144 138 133 124 117 105 90 82 74 69 66 60 56 55 57 60 57
225 222 223 224 225 223 221 222 222 221 218 213 208 206 203 203 203 199 196 191 184 179 175 173 175 173 168 163 155 144 129 100 80 69 64 64 60 56 55 54 55 53
230 225 225 227 229 228 225 224 225 223 220 214 211 209 207 208 207 204 203 199 193 191 191 193 199 204 209 214 215 221 235 320 47 51 51 57 58 54 54 56 55 54
234 230 227 229 231 232 230 229 228 227 224 217 213 211 210 211 210 208 208 206 201 201 203 208 216 223 235 247 253 262 281 305 339 6 16 29 42 42 43 53 61 62
236 234 231 231 233 234 235 234 233 231 228 222 216 214 214 215 214 212 211 211 209 209 211 216 224 231 241 256 266 274 287 298 316 337 348 356 14 23 21 31 52 65
236 237 235 234 235 237 238 238 237 237 234 228 221 218 218 218 218 216 215 216 215 216 218 222 228 235 241 255 266 272 280 287 298 314 328 337 348 359 360 360 15 49
237 238 238 237 237 238 240 241 240 240 239 236 229 223 222 223 222 220 220 221 221 222 225 227 231 237 243 252 261 266 270 274 280 295 312 323 331 339 340 338 339 350
240 241 240 240 239 238 241 242 242 242 242 241 237 231 228 228 227 226 225 226 227 227 229 231 234 240 245 251 259 263 265 266 269 281 298 312 320 329 329 324 320 314
244 244 242 242 241 239 240 241 242 243 243 244 242 238 235 233 233 231 230 231 232 232 233 235 237 243 249 255 259 263 265 264 265 274 286 300 311 320 322 316 308 298
247 246 245 244 243 242 241 242 242 243 244 245 245 243 241 239 238 237 236 237 238 238 238 238 240 244 252 257 261 264 266 265 266 273 280 290 300 308 312 308 298 288
252 249 248 247 247 246 245 244 244 243 244 245 247 246 244 242 242 242 242 242 243 243 242 242 243 247 253 258 261 264 268 269 269 271 276 283 290 296 301 299 294 287
255 254 251 250 250 250 248 247 246 245 244 245 247 248 246 244 243 244 245 246 246 247 246 245 246 250 254 258 261 264 268 270 270 269 272 278 284 288 290 290 289 287
253 254 252 252 253 252 251 250 249 248 246 244 245 247 248 247 244 244 245 247 248 249 249 248 248 250 255 258 261 264 266 269 270 270 271 275 280 282 283 284 285 284
253 252 251 252 253 254 254 252 251 251 249 247 245 247 249 249 247 246 245 246 248 249 249 249 248 250 254 258 260 263 266 267 268 269 271 274 279 280 279 279 280 281
254 253 250 250 251 254 255 253 252 252 252 250 247 246 249 250 250 249 247 247 247 249 249 249 249 250 253 256 259 262 265 266 265 266 269 272 276 277 275 274 275 277
252 254 252 250 250 252 254 255 252 251 251 251 249 247 248 250 251 250 249 249 248 248 249 250 249 250 253 256 258 261 264 266 265 264 265 268 271 273 273 272 272 274
249 253 254 253 252 252 254 255 253 250 250 251 251 249 248 248 249 249 249 250 249 249 249 250 251 252 254 256 258 260 262 263 264 263 262 263 266 270 272 273 273 273
245 251 254 254 254 255 256 258 256 252 249 250 250 250 248 248 248 248 248 250 250 249 249 250 252 252 254 257 258 258 260 262 262 261 259 259 262 267 271 273 274 274
241 249 254 256 256 258 260 261 260 256 251 249 250 250 249 249 248 247 247 248 249 250 249 249 250 251 252 255 257 258 259 260 260 258 256 257 259 264 269 271 272 273
238 246 252 256 259 261 262 262 261 259 255 251 250 250 249 248 248 246 246 246 247 249 249 249 249 250 250 252 255 258 258 257 257 256 254 255 257 261 265 269 271 273
239 245 249 255 261 263 263 262 260 259 257 252 250 249 249 248 248 247 246 246 246 247 248 249 249 249 250 251 253 256 256 255 254 254 253 253 255 258 262 266 270 272
240 245 248 253 259 262 262 260 259 259 258 254 251 250 249 249 248 249 248 247 246 246 247 248 249 248 248 249 250 252 254 253 252 250 250 251 253 256 260 263 267 269
Height
5939 5941 5941 5942 5943 5944 5946 5947 5948 5949 5951 5952 5953 5954 5954 5955 5956 5956 5957 5957 5958 5958 5959 5960 5960 5961 5962 5963 5963 5964 5964 5965 5965 5965 5965 5965 5964 5964 5964 5965 5965 5965
5938 5940 5941 5942 5943 5944 5945 5946 5947 5949 5950 5951 5952 5953 5954 5955 5956 5956 5957 5958 5958 5959 5959 5960 5961 5962 5962 5963 5964 5964 5965 5965 5965 5965 5965 5965 5965 5965 5965 5965 5965 5965
5938 5939 5940 5941 5942 5943 5944 5945 5947 5948 5949 5951 5952 5953 5954 5955 5956 5957 5957 5958 5959 5959 5960 5961 5962 5962 5963 5964 5964 5965 5966 5966 5966 5966 5966 5966 5965 5965 5965 5965 5965 5966
5937 5938 5939 5940 5941 5943 5944 5945 5946 5947 5949 5950 5951 5952 5953 5955 5956 5957 5958 5958 5959 5960 5960 5961 5962 5963 5963 5964 5965 5965 5966 5966 5966 5966 5966 5966 5966 5966 5965 5966 5966 5966
5936 5938 5939 5939 5940 5942 5943 5945 5946 5947 5948 5950 5951 5952 5953 5954 5955 5956 5957 5958 5959 5960 5961 5961 5962 5963 5963 5964 5965 5966 5966 5966 5966 5967 5967 5966 5966 5966 5966 5966 5966 5966
5935 5937 5938 5939 5940 5941 5943 5944 5945 5946 5948 5949 5950 5951 5953 5954 5955 5956 5957 5958 5959 5960 5961 5961 5962 5963 5963 5964 5964 5965 5966 5966 5966 5967 5967 5967 5967 5967 5967 5967 5967 5967
5934 5936 5937 5938 5939 5941 5942 5943 5944 5945 5947 5948 5949 5951 5952 5953 5954 5956 5957 5958 5959 5960 5961 5961 5962 5962 5963 5963 5964 5965 5965 5966 5966 5966 5966 5967 5967 5967 5967 5967 5967 5968
5932 5934 5936 5937 5938 5940 5941 5942 5944 5945 5946 5947 5949 5950 5951 5952 5953 5955 5956 5957 5958 5959 5960 5961 5962 5962 5963 5963 5963 5964 5965 5965 5966 5966 5966 5966 5966 5967 5967 5967 5968 5968
5930 5932 5934 5936 5937 5939 5941 5942 5943 5944 5945 5946 5948 5949 5950 5951 5952 5954 5955 5956 5957 5958 5960 5960 5961 5962 5962 5963 5963 5964 5964 5965 5965 5966 5966 5966 5966 5967 5967 5967 5968 5968
5928 5931 5933 5935 5937 5938 5940 5941 5942 5943 5944 5946 5947 5948 5949 5950 5951 5953 5954 5955 5956 5958 5959 5960 5961 5962 5962 5963 5963 5964 5965 5965 5965 5966 5966 5966 5967 5967 5967 5967 5968 5968
5927 5929 5931 5933 5935 5937 5938 5939 5941 5942 5944 5945 5946 5947 5948 5949 5951 5952 5953 5954 5956 5957 5958 5959 5960 5961 5962 5963 5963 5964 5964 5965 5965 5966 5966 5966 5967 5967 5967 5967 5968 5968
5925 5927 5929 5931 5933 5935 5936 5937 5939 5941 5942 5944 5945 5947 5948 5949 5950 5951 5953 5954 5955 5956 5957 5959 5960 5961 5962 5962 5963 5963 5964 5965 5965 5965 5966 5966 5966 5967 5967 5967 5967 5968
5922 5924 5926 5928 5930 5932 5934 5935 5937 5939 5941 5942 5944 5945 5947 5948 5949 5950 5952 5952 5953 5955 5956 5958 5959 5960 5961 5962 5962 5963 5963 5964 5964 5965 5965 5966 5966 5966 5967 5967 5967 5967
5920 5921 5923 5925 5927 5929 5931 5933 5935 5937 5939 5940 5941 5943 5945 5947 5948 5949 5950 5951 5952 5954 5955 5957 5958 5959 5960 5961 5961 5962 5962 5963 5964 5964 5964 5965 5965 5966 5966 5966 5966 5967
5917 5919 5921 5923 5925 5927 5929 5931 5933 5935 5937 5938 5939 5941 5943 5944 5946 5947 5948 5950 5951 5952 5954 5955 5957 5958 5959 5959 5960 5961 5961 5962 5962 5963 5963 5964 5964 5965 5965 5965 5965 5966
5916 5917 5919 5920 5922 5924 5926 5928 5930 5932 5934 5936 5937 5938 5940 5942 5943 5945 5946 5948 5949 5950 5952 5954 5955 5956 5957 5958 5958 5959 5960 5961 5961 5962 5962 5963 5963 5964 5964 5964 5964 5964
5914 5915 5917 5918 5920 5921 5923 5925 5927 5929 5931 5933 5935 5935 5937 5939 5940 5942 5944 5945 5946 5948 5950 5952 5953 5954 5955 5956 5957 5958 5959 5959 5960 5960 5961 5962 5962 5962 5963 5963 5963 5963
5912 5913 5915 5916 5918 5919 5920 5922 5924 5926 5928 5930 5932 5933 5934 5935 5937 5939 5941 5942 5944 5945 5947 5949 5951 5952 5953 5954 5954 5956 5957 5958 5958 5959 5959 5960 5961 5961 5961 5961 5962 5962
5910 5911 5913 5914 5916 5917 5918 5919 5921 5923 5925 5927 5929 5930 5931 5932 5935 5937 5938 5940 5941 5942 5944 5946 5947 5949 5950 5951 5952 5953 5955 5956 5957 5957 5958 5958 5959 5959 5959 5960 5960 5960
5908 5909 5910 5912 5914 5915 5916 5917 5918 5920 5922 5923 5925 5927 5928 5930 5932 5933 5935 5937 5938 5940 5941 5942 5944 5946 5947 5948 5949 5951 5952 5953 5955 5955 5956 5956 5956 5957 5957 5958 5958 5958
5906 5907 5908 5910 5912 5913 5914 5915 5915 5917 5918 5920 5921 5923 5925 5926 5928 5930 5932 5933 5935 5937 5938 5939 5941 5943 5944 5945 5947 5948 5950 5951 5952 5953 5954 5954 5954 5954 5955 5955 5956 5956
5904 5905 5906 5907 5909 5911 5912 5912 5913 5914 5916 5917 5918 5920 5921 5923 5924 5926 5928 5930 5931 5933 5935 5937 5938 5940 5941 5942 5943 5945 5947 5949 5950 5951 5951 5951 5951 5952 5952 5953 5953 5954
5902 5903 5904 5905 5907 5908 5909 5910 5911 5912 5913 5914 5915 5916 5918 5920 5921 5922 5924 5926 5927 5929 5931 5933 5934 5936 5938 5939 5940 5942 5944 5946 5947 5948 5948 5948 5948 5949 5949 5950 5951 5951
5899 5901 5902 5902 5904 5906 5907 5907 5908 5909 5910 5911 5912 5913 5914 5916 5917 5919 5920 5922 5924 5925 5927 5929 5931 5933 5935 5936 5937 5939 5941 5943 5944 5945 5945 5945 5945 5946 5946 5947 5948 5949
5896 5898 5899 5900 5901 5903 5904 5905 5905 5906 5907 5908 5909 5910 5911 5913 5914 5915 5917 5919 5920 5922 5923 5925 5927 5929 5931 5933 5934 5935 5937 5940 5941 5942 5942 5943 5943 5943 5944 5944 5945 5946
5893 5895 5896 5898 5899 5900 5901 5902 5902 5903 5904 5905 5906 5907 5908 5909 5911 5912 5914 5915 5917 5918 5920 5922 5924 5926 5928 5929 5930 5932 5933 5936 5937 5939 5939 5940 5940 5940 5941 5942 5942 5943